FENGYUN 1C DEB, 33688

Orbit data source: Space-Track

FENGYUN 1C DEB, 33688 is space debris in SSO originally from a launch on Mon, 10 May 1999 UTC launched from the Taiyaun Space Center, China (TSC). Fengyun 1C debris stems from the Chinese weather satellite Fengyun-1C, which was intentionally destroyed by a Chinese anti-satellite missile in 2007. This event dramatically increased the amount of space debris, with thousands of trackable fragments posing hazards to satellites and human spaceflight. The Fengyun 1C debris cloud has become a focal point in discussions about space sustainability and the need for international regulations to prevent the creation of new debris.

Loading next visibility...
Identifier
33688, 1999-025DFZ
Orbit
SSO
Country
Flag of CNCN / PRC
Related business
Manufacturer
Unknown
Mission
Spacecraft
Bus & Motor
Unknown
Mass
Unknown
Launch date (UTC)
1999-05-10 (27 years ago)
Launch vehicle
Unknown
Launch site
Taiyaun Space Center, China (TSC)
Object type
Payload
Rocket body
Debris
Shape & HBR
Unknown shape, 0.1 m
Radar Cross Section
Small (<0.1 m²)

Expand to show TLE details & history
Last TLE update: 2 days ago

TLE from 2 days ago
0 FENGYUN 1C DEB
1 33688U 99025DFZ 26206.07657602  .00007325  00000-0  18844-2 0  9996
2 33688  99.3558 336.1120 0046942 320.8265  38.9531 14.49820898947288
Epoch: 2026-07-25T01:50Z
TLE epoch observation values (Epoch: 2026-07-25T01:50:16.168Z)
Latitude
-0.00001°
Longitude
5.75059°
Altitude
703.29 km
Speed
7.518 km/s
True Right ascension
22h 24m 26s
True Declination
0° 00' 00"
Sunlit
Object was in full shadow at epoch
Visualization orbit readout
Latitude
Unknown
Longitude
Unknown
Altitude
Unknown
Speed
Unknown
Apparent Right ascension
Unknown
Apparent Declination
Unknown
Sunlit
N/A
Visualization observer readout
Local Sidereal Time
01:36:03
Azimuth
Unknown
Elevation
Unknown
Doppler factor
Unknown
Orbital elements
Apogee altitude
756.721 km
Perigee altitude
690.049 km
Semi-major axis
7,101.522 km
Eccentricity
0.00469
Inclination
99.3558°
RAAN
336.112°
Arg. of periapsis
320.8265°
True anomaly
39.29283°
Mean anomaly
38.9531°
Eccentric anomaly
39.12281°
Mean motion
3.62674 °/min
Orbital period
99.26 mins
BSTAR
0.0018844
Loading maneuver chart data...
Computing Atmospheric mass density...

Documentation

Showing up to 5 results
|